| time (UTC) | temp C | wind direction | speed KPH | gust KPH | rain 1hr cm | rain 24hr cm | rain mn cm | humidity % | barometer mb |
| 20260504221531 | 24 | 236 | 12.9 | 0.0 | 0.00 | 0.00 | 0.00 | 40 | 847.7 |
| 20260504220054 | 24 | 171 | 9.7 | 0.0 | 0.00 | 0.00 | 0.00 | 39 | 847.7 |
| 20260504214518 | 23 | 185 | 12.9 | 0.0 | 0.00 | 0.00 | 0.00 | 40 | 847.7 |
| 20260504213047 | 24 | 234 | 8.0 | 0.0 | 0.00 | 0.00 | 0.00 | 38 | 847.8 |
| 20260504211502 | 24 | 208 | 11.3 | 0.0 | 0.00 | 0.00 | 0.00 | 38 | 847.9 |
| 20260504210031 | 24 | 205 | 9.7 | 0.0 | 0.00 | 0.00 | 0.00 | 39 | 847.8 |
| 20260504204547 | 23 | 205 | 14.5 | 0.0 | 0.00 | 0.00 | 0.00 | 39 | 847.9 |
| 20260504203005 | 24 | 138 | 12.9 | 0.0 | 0.00 | 0.00 | 0.00 | 40 | 847.9 |
| 20260504201534 | 24 | 174 | 11.3 | 0.0 | 0.00 | 0.00 | 0.00 | 39 | 848.1 |
| 20260504194522 | 24 | 180 | 8.0 | 0.0 | 0.00 | 0.00 | 0.00 | 38 | 848.3 |
| 20260504193040 | 23 | 292 | 9.7 | 0.0 | 0.00 | 0.00 | 0.00 | 39 | 848.6 |
| 20260504191614 | 23 | 271 | 14.5 | 0.0 | 0.00 | 0.00 | 0.00 | 39 | 848.9 |
| 20260504190026 | 23 | 286 | 17.7 | 0.0 | 0.00 | 0.00 | 0.00 | 40 | 849.0 |
| 20260504184549 | 23 | 232 | 11.3 | 0.0 | 0.00 | 0.00 | 0.00 | 39 | 849.0 |
| 20260504183005 | 22 | 238 | 11.3 | 0.0 | 0.00 | 0.00 | 0.00 | 42 | 849.3 |
| 20260504181528 | 22 | 360 | 9.7 | 0.0 | 0.00 | 0.00 | 0.00 | 43 | 849.4 |
| 20260504180051 | 22 | 295 | 8.0 | 0.0 | 0.00 | 0.00 | 0.00 | 42 | 849.5 |
| 20260504174513 | 22 | 132 | 8.0 | 0.0 | 0.00 | 0.00 | 0.00 | 43 | 849.6 |
| 20260504173032 | 21 | 243 | 14.5 | 0.0 | 0.00 | 0.00 | 0.00 | 44 | 849.8 |
| 20260504171553 | 21 | 258 | 17.7 | 0.0 | 0.00 | 0.00 | 0.00 | 43 | 850.0 |